Showing default

COSMOS 209, 3158

Orbit data source: Space-Track

COSMOS 209, 3158 is a payload satellite owned by TSKBM (CIS) in LEO that was launched on Fri, 22 Mar 1968 UTC via a TSIKLON-2A launch vehicle from the Tyuratam Missile And Space Complex (TTMTR). Payload-class satellites include a variety of spacecraft equipped with specific instruments for various scientific and technological missions. These include communications satellites like Starlink; space stations such as the ISS; scientific satellites like the Hubble; Earth observation satellites from companies like Planet Labs, Umbra, and HawkEye 360; GPS; miniature CubeSats for education and research; and military/defense satellites.

Loading next visibility...
Identifier
3158, 1968-023A
Orbit
LEO
Country
Flag of CISCIS
Related business
Manufacturer
TSKBM/KB1
Mission
Defense Sigint
Bus & Motor
US-A REACTOR, Unknown motor
Mass
3,800 kg wet, 1,140 kg dry
Launch date (UTC)
1968-03-22 (57 years ago)
Launch vehicle
TSIKLON-2A
Launch site
Tyuratam Missile And Space Complex (TTMTR)
Object type
Payload
Rocket body
Debris
Shape & HBR
Cyl, 2.9 m
Radar Cross Section
6.586 m², Large (>1 m²)

Expand to show TLE details & history
Last TLE update: 9 hours ago

TLE from 9 hours ago
0 COSMOS 209
1 03158U 68023A   25259.26708420 -.00000063  00000-0  18782-4 0  9998
2 03158  65.3319 191.7813 0040885 334.8042  25.1032 13.97908460932728
Epoch: 2025-09-16T06:24Z
TLE epoch observation values (Epoch: 2025-09-16T06:24:36.074Z)
Latitude
-0.0001°
Longitude
100.1711°
Altitude
876.084 km
Speed
7.428 km/s
True Right ascension
12h 47m 07s
True Declination
0° 00' 00"
Sunlit
Object was in daylight at epoch
Visualization orbit readout
Latitude
Unknown
Longitude
Unknown
Altitude
Unknown
Speed
Unknown
Apparent Right ascension
Unknown
Apparent Declination
Unknown
Sunlit
N/A
Visualization observer readout
Local Sidereal Time
07:42:14
Azimuth
Unknown
Elevation
Unknown
Doppler factor
Unknown
Orbital elements
Apogee altitude
929.362 km
Perigee altitude
869.852 km
Semi-major axis
7,277.744 km
Eccentricity
0.00409
Inclination
65.3319°
RAAN
191.7813°
Arg. of periapsis
334.8042°
True anomaly
25.30289°
Mean anomaly
25.1032°
Eccentric anomaly
25.20295°
Mean motion
3.49581 °/min
Orbital period
102.98 mins
BSTAR
0.000018782
Loading maneuver chart data...
Computing Atmospheric mass density...
Loading historical data...
Loading historical data...
Loading historical data...
Loading historical data...
Loading historical data...
Loading historical data...
Loading historical data...

Documentation

Showing up to 5 results
|